COSMOS 1536

Satellite information

Favourite Embed

Satellite Type and Status

PAYLOADIN ORBIT

Key statistics

Satellite COSMOS 1536 at a glance.

Uptime

15183

Days in orbit

Revolutions

≈ 15.2

Per day

Orbit

LEO

Low Earth Orbit

Inclination

82.5

Latest

Satellite identification and parameters

Extended collection of information and parameters for COSMOS 1536.

Object identification

Identified? True

Debris? False

Object name: COSMOS 1536

International designator: 1984-013A

Object number (NORAD): 14699

Object ID (CCSDS): 14699

Country: COMMONWEALTH OF INDEPENDENT STATES (CIS)

Current information (Y/N): Y

RCS size: LARGE

Orbital parameters

Period: 94.697 minutes

Inclination: 82.5461 deg

SMA: 6882.025 km

Apoapsis: 514.126 km

Periapsis: 493.653 km

RAAN: 294.0765 deg

Eccentricy: 0.0014874

Argument of periapsis: 214.8767 deg

Mean anomaly: 145.1495 deg

Mean motion: 15.2064704 rev/day

Mean motion (dot): 0.00010451 rev/day2

B* drag term: 0.00047335046 1/REarth

Two-line elements (TLE)

Creation date: Sept. 3, 2025, 2:21 a.m.

Reference frame: TEME

Reference center: EARTH

Epoch: Sept. 2, 2025, 8:36 p.m. UTC

TLE line 0: 0 COSMOS 1536

TLE line 1: 1 14699U 84013A 25245.85883485 .00010451 00000-0 47335-3 0 9998

TLE line 2: 2 14699 82.5461 294.0765 0014874 214.8767 145.1495 15.20647040244041

Live tracking on map

Real-time ground track for satellite COSMOS 1536.

In-orbit conjunctions

A list of the most updated potential collisions computed for object COSMOS 1536.

Target Orbit TCA Probability of collision Miss distance Type
COSMOS 1869 LEO 2025-03-07 10:27:56 0.0001055895 986.0 (m) PAYLOAD
SL-14 DEB LEO 2025-02-27 15:57:06 0.0008461482 190.0 (m) DEBRIS
FENGYUN 1C DEB SSO 2025-02-02 15:07:28 0.0002318379 428.0 (m) DEBRIS

Associated space launch

Tselina-D satellites provided detailed observation of radio sources detected by the smaller Tselina-O satellites as part of the Tselina ELINT system.

COSMOS 1536 was lifted into orbit during the mission ‘Tsiklon-3 | Tselina-D 44’, on board a Tsiklon-3 space rocket.

The launch took place on Feb. 8, 1984, 9:23 a.m. from 32/2.

For more information about the launch, click the button.

Launch to space Tsiklon-3 | Tselina-D 44
Tsiklon-3 | Tselina-D 44

Agency: N/A

Status: Launch Successful

Launch date: Feb. 8, 1984, 9:23 a.m. UTC

Rocket: Tsiklon-3

Launch pad: 32/2

Location: Plesetsk Cosmodrome, Russian Federation

...

Latest news about this satellite

There are no fresh news available about this satellite. Check back as we update our databases every day.


Newsletter sign-up

Weekly statistics, charts and insights to help you stay on top of the space industry.